Voltar ao catálogo

STARLINK-11406

AtivoComunicaçõesVLEO
NORAD 63057·PAYLOAD·🇺🇸 United States

Lançado Feb 21, 2025 de Cape Canaveral Space Force Station

Loading…

Próximas Passagens (próximas 24 horas)

TLE

AtualizadoSource: CelesTrak SupGP

Época: Sep 14, 2026, 21:12 UTC

1 63057C 25035F   26257.88381944 -.00100940  00000+0 -78372-3 0  2575
2 63057  43.0002 314.8716 0001509 279.4167 200.2967 15.70896114    12

Acompanhe STARLINK-11406 em tempo real com AllMySat

Download on the App Store